Record,Date/Time,10,Tamb(K),Rh(%),Pres(mb),Rain,Az(deg),El(deg),TkBB(K), 22.235, 23.035, 23.835, 26.235, 30.000,
     1,10/09/05 00:01:14,11,290.98, 65.28,1017.7,Y,  0.00, 90.00,295.59, 33.95, 33.87, 29.15, 21.46, 16.22,
     2,10/09/05 00:02:14,11,291.18, 66.25,1017.7,Y,  0.00, 90.00,295.59, 34.77, 33.91, 29.31, 21.05, 16.22,
     3,10/09/05 00:03:14,11,291.01, 67.29,1017.7,Y,  0.00, 90.00,295.58, 35.25, 34.46, 30.18, 22.13, 17.38,
     4,10/09/05 00:04:14,11,291.07, 66.44,1017.8,Y,  0.00, 90.00,295.59, 34.47, 34.32, 29.80, 21.94, 16.98,
     5,10/09/05 00:05:14,11,291.11, 67.70,1017.3,Y,  0.00, 90.00,295.60, 35.94, 35.15, 30.69, 23.25, 17.87,
     6,10/09/05 00:06:14,11,291.06, 67.86,1017.7,Y,  0.00, 90.00,295.59, 36.52, 35.93, 31.15, 23.29, 17.83,
     7,10/09/05 00:07:15,11,291.05, 67.83,1018.0,Y,  0.00, 90.00,295.59, 37.48, 37.09, 32.64, 24.71, 20.21,
     8,10/09/05 00:08:14,11,291.05, 69.27,1018.0,Y,  0.00, 90.00,295.60, 38.50, 37.93, 33.75, 25.55, 21.40,
     9,10/09/05 00:09:14,11,291.05, 68.86,1018.0,Y,  0.00, 90.00,295.61, 39.26, 38.90, 34.22, 26.83, 22.82,
    10,10/09/05 00:10:14,11,291.24, 70.90,1018.1,Y,  0.00, 90.00,295.62, 39.89, 39.17, 34.83, 27.14, 23.28,
    11,10/09/05 00:11:14,11,290.91, 71.56,1017.8,Y,  0.00, 90.00,295.63, 40.53, 40.41, 36.06, 28.66, 24.16,
    12,10/09/05 00:12:14,11,291.14, 72.08,1017.9,Y,  0.00, 90.00,295.64, 40.36, 39.71, 35.71, 27.29, 24.10,
    13,10/09/05 00:13:14,11,291.07, 72.73,1018.1,Y,  0.00, 90.00,295.64, 37.10, 36.38, 32.11, 23.44, 18.94,
    14,10/09/05 00:14:14,11,290.99, 69.50,1017.6,Y,  0.00, 90.00,295.65, 36.70, 35.63, 31.23, 23.05, 18.79,
    15,10/09/05 00:15:14,11,291.14, 67.65,1017.5,Y,  0.00, 90.00,295.66, 36.80, 35.96, 31.07, 23.07, 18.70,
    16,10/09/05 00:16:14,11,291.24, 69.92,1018.0,Y,  0.00, 90.00,295.65, 36.20, 35.89, 31.08, 23.74, 19.50,
    17,10/09/05 00:17:14,11,291.13, 69.50,1017.7,Y,  0.00, 90.00,295.68, 35.66, 35.03, 30.65, 22.70, 18.57,
    18,10/09/05 00:18:14,11,291.11, 66.59,1017.9,Y,  0.00, 90.00,295.67, 35.71, 34.36, 30.54, 22.13, 16.37,
    19,10/09/05 00:19:14,11,291.24, 66.67,1018.3,Y,  0.00, 90.00,295.67, 34.73, 33.86, 29.59, 21.19, 16.51,
    20,10/09/05 00:20:14,11,291.27, 67.68,1018.0,Y,  0.00, 90.00,295.68, 34.49, 33.91, 29.68, 21.71, 16.94,
    21,10/09/05 00:21:14,11,291.16, 65.18,1018.2,Y,  0.00, 90.00,295.68, 34.98, 34.24, 29.92, 21.80, 16.57,
    22,10/09/05 00:22:14,11,291.20, 67.28,1017.8,Y,  0.00, 90.00,295.69, 35.13, 34.80, 30.07, 22.96, 17.09,
    23,10/09/05 00:23:14,11,291.18, 66.78,1018.1,Y,  0.00, 90.00,295.68, 35.33, 34.96, 30.27, 22.44, 17.11,
    24,10/09/05 00:24:14,11,291.14, 65.89,1018.2,Y,  0.00, 90.00,295.69, 36.45, 35.76, 31.05, 23.40, 19.09,
    25,10/09/05 00:25:14,11,291.10, 67.10,1018.3,Y,  0.00, 90.00,295.70, 37.38, 36.66, 32.55, 25.09, 21.07,
    26,10/09/05 00:26:14,11,291.08, 68.96,1017.8,Y,  0.00, 90.00,295.69, 36.95, 37.02, 32.20, 24.56, 19.33,
    27,10/09/05 00:27:14,11,291.06, 70.18,1018.0,Y,  0.00, 90.00,295.71, 37.15, 36.53, 31.98, 24.22, 19.87,
    28,10/09/05 00:28:14,11,291.15, 71.42,1018.0,Y,  0.00, 90.00,295.69, 37.66, 36.78, 32.43, 24.68, 19.85,
    29,10/09/05 00:29:14,11,291.21, 71.67,1018.0,Y,  0.00, 90.00,295.72, 38.40, 37.93, 33.52, 25.82, 21.16,
    30,10/09/05 00:30:14,11,291.21, 72.41,1017.7,Y,  0.00, 90.00,295.72, 37.89, 36.98, 32.21, 24.52, 21.39,
    31,10/09/05 00:31:14,11,291.09, 70.68,1017.9,Y,  0.00, 90.00,295.72, 38.49, 37.51, 33.34, 25.49, 21.67,
    32,10/09/05 00:32:14,11,291.12, 69.10,1017.7,Y,  0.00, 90.00,295.73, 37.75, 37.34, 32.99, 25.33, 20.32,
    33,10/09/05 00:33:14,11,291.07, 69.58,1018.2,Y,  0.00, 90.00,295.73, 37.60, 37.16, 33.10, 24.85, 21.31,
    34,10/09/05 00:34:14,11,291.06, 70.31,1017.9,Y,  0.00, 90.00,295.74, 38.25, 38.30, 34.13, 25.84, 21.63,
    35,10/09/05 00:35:14,11,291.10, 70.18,1018.1,Y,  0.00, 90.00,295.74, 38.12, 37.12, 32.50, 25.22, 20.84,
    36,10/09/05 00:36:14,11,291.20, 70.62,1018.3,Y,  0.00, 90.00,295.75, 37.50, 37.40, 32.77, 24.97, 20.37,
    37,10/09/05 00:37:14,11,291.15, 71.05,1017.6,Y,  0.00, 90.00,295.73, 36.59, 36.47, 31.41, 23.74, 19.20,
    38,10/09/05 00:38:14,11,291.18, 68.66,1018.2,Y,  0.00, 90.00,295.75, 36.53, 36.08, 31.57, 23.43, 18.06,
    39,10/09/05 00:39:14,11,291.06, 68.51,1018.1,Y,  0.00, 90.00,295.74, 36.82, 36.23, 31.42, 23.41, 19.03,
    40,10/09/05 00:40:14,11,291.09, 68.08,1018.0,Y,  0.00, 90.00,295.75, 35.69, 34.40, 30.20, 22.16, 16.80,
    41,10/09/05 00:41:14,11,291.18, 68.77,1018.3,Y,  0.00, 90.00,295.75, 35.09, 34.72, 29.80, 22.01, 17.49,
    42,10/09/05 00:42:14,11,291.04, 66.29,1018.1,Y,  0.00, 90.00,295.76, 35.94, 34.86, 30.68, 22.38, 17.56,
    43,10/09/05 00:43:14,11,291.06, 66.55,1018.0,Y,  0.00, 90.00,295.75, 34.40, 33.56, 28.84, 21.12, 16.32,
    44,10/09/05 00:44:15,11,291.05, 65.28,1017.9,Y,  0.00, 90.00,295.74, 34.12, 33.75, 29.30, 21.29, 16.08,
    45,10/09/05 00:45:14,11,291.02, 62.91,1018.4,Y,  0.00, 90.00,295.76, 34.08, 33.50, 29.06, 21.02, 16.12,
    46,10/09/05 00:46:14,11,291.07, 64.13,1018.2,Y,  0.00, 90.00,295.75, 34.64, 34.72, 29.85, 21.71, 16.28,
    47,10/09/05 00:47:14,11,291.02, 65.11,1018.1,Y,  0.00, 90.00,295.75, 34.40, 33.69, 29.35, 20.93, 16.33,
    48,10/09/05 00:48:14,11,291.15, 63.98,1018.4,Y,  0.00, 90.00,295.75, 34.38, 33.04, 29.09, 21.00, 16.18,
    49,10/09/05 00:49:14,11,291.08, 65.17,1018.1,Y,  0.00, 90.00,295.75, 34.88, 33.68, 29.58, 21.70, 16.49,
    50,10/09/05 00:50:15,11,291.13, 66.83,1018.4,Y,  0.00, 90.00,295.73, 35.23, 34.70, 30.35, 22.81, 17.24,
    51,10/09/05 00:51:14,11,291.16, 66.56,1018.3,Y,  0.00, 90.00,295.74, 34.29, 33.83, 29.82, 21.62, 16.00,
    52,10/09/05 00:52:14,11,291.05, 65.19,1018.6,Y,  0.00, 90.00,295.75, 33.68, 33.00, 29.27, 20.71, 15.35,
    53,10/09/05 00:53:14,11,291.15, 63.77,1018.5,Y,  0.00, 90.00,295.74, 33.79, 32.62, 28.37, 20.62, 15.61,
    54,10/09/05 00:54:14,11,291.07, 64.63,1018.3,Y,  0.00, 90.00,295.74, 34.47, 34.08, 29.44, 21.37, 15.50,
    55,10/09/05 00:55:14,11,291.04, 64.99,1018.7,Y,  0.00, 90.00,295.74, 34.56, 34.19, 29.27, 21.47, 16.02,
    56,10/09/05 00:56:14,11,291.08, 64.70,1018.3,Y,  0.00, 90.00,295.75, 33.68, 33.14, 28.88, 21.16, 15.89,
    57,10/09/05 00:57:14,11,291.12, 64.74,1018.4,Y,  0.00, 90.00,295.75, 34.05, 33.81, 28.90, 21.24, 16.52,
    58,10/09/05 00:58:14,11,291.12, 65.81,1018.6,Y,  0.00, 90.00,295.75, 33.95, 33.09, 28.85, 21.16, 16.35,
    59,10/09/05 00:59:14,11,291.05, 64.84,1018.5,Y,  0.00, 90.00,295.74, 34.17, 33.29, 28.63, 21.53, 15.70,
    60,10/09/05 01:00:14,11,291.21, 68.12,1018.1,Y,  0.00, 90.00,295.73, 34.25, 33.97, 28.93, 21.27, 17.26,
    61,10/09/05 01:01:14,11,291.06, 63.75,1018.4,N,  0.00, 90.00,295.74, 34.38, 33.45, 29.07, 21.14, 16.14,
    62,10/09/05 01:02:14,11,291.29, 67.21,1018.6,Y,  0.00, 90.00,295.75, 34.73, 33.69, 29.48, 21.62, 17.07,
    63,10/09/05 01:03:14,11,291.14, 65.76,1018.4,Y,  0.00, 90.00,295.74, 34.75, 34.01, 30.10, 22.13, 17.62,
    64,10/09/05 01:04:14,11,291.10, 67.46,1018.6,Y,  0.00, 90.00,295.74, 34.19, 34.25, 29.88, 21.81, 17.02,
    65,10/09/05 01:05:14,11,291.02, 63.48,1018.9,N,  0.00, 90.00,295.74, 34.66, 34.17, 29.55, 22.28, 16.64,
    66,10/09/05 01:06:14,11,291.22, 67.42,1018.2,Y,  0.00, 90.00,295.76, 35.02, 34.44, 30.85, 22.94, 18.14,
    67,10/09/05 01:07:14,11,291.05, 65.28,1018.4,N,  0.00, 90.00,295.76, 35.25, 34.38, 30.23, 22.17, 17.58,
    68,10/09/05 01:08:14,11,291.16, 67.16,1018.6,Y,  0.00, 90.00,295.75, 34.34, 33.47, 29.45, 21.59, 16.11,
    69,10/09/05 01:09:14,11,291.28, 65.65,1018.6,Y,  0.00, 90.00,295.75, 33.87, 33.52, 29.20, 20.80, 15.92,
    70,10/09/05 01:10:14,11,291.07, 64.71,1018.6,N,  0.00, 90.00,295.75, 33.76, 33.19, 28.93, 21.02, 15.30,
    71,10/09/05 01:11:14,11,291.20, 65.10,1018.9,N,  0.00, 90.00,295.75, 34.30, 33.86, 29.38, 21.19, 16.19,
    72,10/09/05 01:12:14,11,291.26, 65.17,1018.9,Y,  0.00, 90.00,295.76, 34.15, 33.71, 29.88, 21.62, 16.67,
    73,10/09/05 01:13:14,11,291.19, 65.69,1018.6,Y,  0.00, 90.00,295.76, 34.87, 34.62, 30.31, 22.21, 17.13,
    74,10/09/05 01:14:14,11,291.31, 67.52,1018.5,Y,  0.00, 90.00,295.77, 34.95, 34.27, 29.95, 21.84, 16.91,
    75,10/09/05 01:15:14,11,291.29, 67.25,1018.5,Y,  0.00, 90.00,295.77, 35.42, 34.58, 29.99, 22.37, 17.88,
    76,10/09/05 01:16:14,11,291.31, 66.69,1018.4,Y,  0.00, 90.00,295.77, 35.95, 35.13, 31.15, 22.83, 17.66,
    77,10/09/05 01:17:14,11,291.18, 67.86,1018.6,Y,  0.00, 90.00,295.77, 36.38, 35.52, 30.90, 23.45, 19.08,
    78,10/09/05 01:18:14,11,291.31, 67.97,1018.9,Y,  0.00, 90.00,295.78, 36.41, 35.95, 31.15, 23.88, 18.60,
    79,10/09/05 01:19:14,11,291.24, 67.16,1018.5,Y,  0.00, 90.00,295.79, 36.30, 35.96, 32.04, 23.89, 19.20,
    80,10/09/05 01:20:14,11,291.26, 65.95,1018.7,Y,  0.00, 90.00,295.79, 36.32, 36.15, 31.70, 24.12, 19.26,
    81,10/09/05 01:21:14,11,291.27, 67.56,1018.9,Y,  0.00, 90.00,295.80, 37.53, 36.71, 32.39, 24.49, 20.20,
    82,10/09/05 01:22:14,11,291.22, 67.18,1018.9,Y,  0.00, 90.00,295.80, 37.10, 36.85, 32.02, 24.56, 19.58,
    83,10/09/05 01:23:14,11,291.31, 68.47,1018.5,Y,  0.00, 90.00,295.81, 37.07, 36.32, 31.85, 24.37, 19.31,
    84,10/09/05 01:24:14,11,291.17, 68.31,1018.4,Y,  0.00, 90.00,295.82, 37.23, 36.43, 31.70, 23.78, 18.52,
    85,10/09/05 01:25:14,11,291.28, 68.68,1018.7,Y,  0.00, 90.00,295.82, 37.12, 36.54, 32.21, 24.60, 20.39,
    86,10/09/05 01:26:14,11,291.36, 70.01,1019.1,Y,  0.00, 90.00,295.84, 37.12, 36.12, 32.18, 24.14, 20.25,
    87,10/09/05 01:27:14,11,291.36, 70.18,1018.5,Y,  0.00, 90.00,295.84, 38.59, 37.84, 33.71, 26.11, 22.29,
    88,10/09/05 01:28:14,11,291.18, 72.11,1018.4,Y,  0.00, 90.00,295.85, 37.49, 37.17, 32.84, 24.67, 19.92,
    89,10/09/05 01:29:14,11,291.13, 72.16,1018.7,Y,  0.00, 90.00,295.86, 37.02, 36.71, 32.54, 24.56, 19.82,
    90,10/09/05 01:30:14,11,291.06, 72.01,1018.9,Y,  0.00, 90.00,295.86, 36.12, 35.76, 31.52, 23.29, 19.07,
    91,10/09/05 01:31:14,11,291.23, 73.85,1018.7,Y,  0.00, 90.00,295.87, 37.27, 36.48, 32.38, 24.20, 18.58,
    92,10/09/05 01:32:14,11,291.27, 74.11,1018.9,Y,  0.00, 90.00,295.88, 37.14, 36.41, 31.36, 23.18, 18.73,
    93,10/09/05 01:33:14,11,291.19, 73.99,1019.2,Y,  0.00, 90.00,295.88, 36.87, 36.51, 31.73, 23.48, 18.60,
    94,10/09/05 01:34:14,11,291.18, 74.16,1018.6,Y,  0.00, 90.00,295.89, 38.01, 36.80, 32.69, 24.57, 18.92,
    95,10/09/05 01:35:14,11,291.04, 74.45,1018.7,Y,  0.00, 90.00,295.90, 40.17, 40.50, 36.26, 28.65, 24.25,
    96,10/09/05 01:36:14,11,291.25, 75.80,1018.6,Y,  0.00, 90.00,295.90, 44.20, 43.78, 39.46, 33.02, 30.70,
    97,10/09/05 01:37:14,11,291.27, 76.46,1018.8,Y,  0.00, 90.00,295.91, 45.01, 45.23, 41.41, 34.31, 33.17,
    98,10/09/05 01:38:14,11,290.97, 76.43,1018.3,Y,  0.00, 90.00,295.90, 48.93, 49.04, 45.60, 40.18, 39.99,
    99,10/09/05 01:39:14,11,290.87, 77.34,1018.4,Y,  0.00, 90.00,295.91, 47.97, 48.40, 44.74, 38.66, 36.17,
   100,10/09/05 01:40:14,11,290.78, 78.90,1018.7,Y,  0.00, 90.00,295.89, 45.59, 46.21, 42.57, 35.87, 33.72,
   101,10/09/05 01:41:14,11,290.72, 79.40,1019.0,Y,  0.00, 90.00,295.90, 45.38, 45.03, 41.60, 35.15, 33.42,
   102,10/09/05 01:42:14,11,290.67, 79.41,1019.0,Y,  0.00, 90.00,295.89, 44.67, 44.24, 40.78, 34.18, 32.85,
   103,10/09/05 01:43:14,11,290.65, 78.43,1018.7,Y,  0.00, 90.00,295.89, 42.55, 42.57, 38.52, 32.25, 29.35,
   104,10/09/05 01:44:14,11,290.58, 76.76,1018.9,Y,  0.00, 90.00,295.87, 41.32, 40.91, 37.32, 29.71, 26.56,
   105,10/09/05 01:45:15,11,290.73, 77.37,1019.3,Y,  0.00, 90.00,295.86, 40.94, 40.40, 36.87, 29.02, 26.02,
   106,10/09/05 01:46:14,11,290.86, 78.20,1019.0,Y,  0.00, 90.00,295.83, 40.39, 39.52, 35.73, 27.80, 24.98,
   107,10/09/05 01:47:14,11,290.95, 77.81,1018.5,Y,  0.00, 90.00,295.84, 39.77, 38.87, 35.43, 28.02, 23.65,
   108,10/09/05 01:48:15,11,290.93, 78.31,1018.4,Y,  0.00, 90.00,295.80, 39.89, 39.70, 35.13, 28.16, 23.15,
   109,10/09/05 01:49:14,11,290.69, 78.52,1018.8,Y,  0.00, 90.00,295.80, 40.17, 40.98, 35.95, 28.05, 24.99,
   110,10/09/05 01:50:14,11,290.84, 78.62,1018.9,Y,  0.00, 90.00,295.78, 43.11, 42.84, 38.62, 31.88, 28.74,
   111,10/09/05 01:51:14,11,290.92, 79.00,1019.4,Y,  0.00, 90.00,295.78, 38.81, 38.72, 34.40, 26.78, 21.84,
   112,10/09/05 01:52:14,11,290.81, 78.17,1018.9,Y,  0.00, 90.00,295.76, 40.54, 40.67, 36.25, 29.07, 25.50,
   113,10/09/05 01:53:14,11,290.95, 78.57,1019.3,Y,  0.00, 90.00,295.74, 40.87, 41.17, 37.11, 29.72, 26.48,
   114,10/09/05 01:54:14,11,291.00, 79.66,1018.8,Y,  0.00, 90.00,295.73, 41.49, 41.73, 37.58, 30.63, 28.60,
   115,10/09/05 01:55:15,11,290.85, 79.49,1019.4,Y,  0.00, 90.00,295.72, 41.36, 41.25, 37.53, 29.86, 26.04,
   116,10/09/05 01:56:14,11,290.94, 79.28,1019.0,Y,  0.00, 90.00,295.72, 39.95, 39.00, 34.94, 27.33, 22.88,
   117,10/09/05 01:57:14,11,291.12, 78.96,1018.9,Y,  0.00, 90.00,295.71, 37.72, 37.14, 32.62, 25.34, 21.01,
   118,10/09/05 01:58:14,11,291.05, 77.32,1019.0,Y,  0.00, 90.00,295.70, 38.24, 37.71, 32.94, 25.81, 22.19,
   119,10/09/05 01:59:14,11,290.87, 74.30,1019.0,Y,  0.00, 90.00,295.69, 37.31, 36.74, 33.40, 25.19, 21.51,
   120,10/09/05 02:00:14,11,291.10, 73.87,1018.6,Y,  0.00, 90.00,295.68, 37.16, 36.09, 32.83, 24.95, 20.97,
   121,10/09/05 02:01:14,11,290.97, 71.03,1018.7,Y,  0.00, 90.00,295.69, 36.64, 36.09, 31.92, 24.35, 20.73,
   122,10/09/05 02:02:14,11,291.20, 70.61,1018.9,Y,  0.00, 90.00,295.66, 35.80, 36.15, 32.22, 24.72, 20.93,
   123,10/09/05 02:03:14,11,291.14, 69.70,1019.0,Y,  0.00, 90.00,295.66, 35.92, 35.52, 31.73, 24.23, 19.53,
   124,10/09/05 02:04:14,11,291.18, 69.94,1018.4,Y,  0.00, 90.00,295.66, 35.51, 35.21, 31.31, 24.29, 18.87,
   125,10/09/05 02:05:14,11,291.12, 67.51,1018.7,Y,  0.00, 90.00,295.65, 35.11, 34.67, 30.42, 23.13, 18.51,
   126,10/09/05 02:06:14,11,291.25, 66.49,1019.5,Y,  0.00, 90.00,295.64, 34.33, 33.69, 29.10, 22.03, 16.85,
   127,10/09/05 02:07:14,11,291.38, 67.55,1019.6,Y,  0.00, 90.00,295.65, 34.19, 33.68, 29.11, 22.63, 16.79,
   128,10/09/05 02:08:14,11,291.25, 64.95,1019.1,Y,  0.00, 90.00,295.65, 34.24, 33.41, 29.34, 22.20, 17.31,
   129,10/09/05 02:09:15,11,291.38, 64.90,1018.9,Y,  0.00, 90.00,295.63, 34.33, 33.82, 29.96, 22.10, 18.00,
   130,10/09/05 02:10:14,11,291.21, 66.19,1019.5,Y,  0.00, 90.00,295.64, 35.93, 35.68, 31.38, 24.37, 19.86,
   131,10/09/05 02:11:14,11,291.22, 67.68,1019.1,Y,  0.00, 90.00,295.63, 36.12, 35.57, 31.58, 23.89, 20.35,
   132,10/09/05 02:12:14,11,291.05, 66.47,1019.3,Y,  0.00, 90.00,295.64, 36.51, 36.04, 32.23, 24.62, 20.88,
   133,10/09/05 02:13:14,11,291.18, 67.63,1019.3,Y,  0.00, 90.00,295.64, 35.94, 35.71, 31.86, 24.29, 19.85,
   134,10/09/05 02:14:14,11,291.26, 68.09,1019.5,Y,  0.00, 90.00,295.64, 36.60, 36.27, 32.23, 24.81, 20.85,
   135,10/09/05 02:15:14,11,291.08, 67.84,1019.3,Y,  0.00, 90.00,295.64, 37.50, 36.86, 33.18, 25.71, 22.13,
   136,10/09/05 02:16:14,11,291.00, 68.13,1019.4,Y,  0.00, 90.00,295.64, 38.23, 37.69, 34.07, 26.71, 23.50,
   137,10/09/05 02:17:15,11,291.13, 69.88,1019.3,Y,  0.00, 90.00,295.65, 37.26, 36.83, 32.61, 25.17, 21.27,
   138,10/09/05 02:18:14,11,291.16, 69.35,1019.4,Y,  0.00, 90.00,295.65, 37.65, 37.00, 32.88, 25.41, 21.78,
   139,10/09/05 02:19:14,11,291.17, 71.18,1019.2,Y,  0.00, 90.00,295.67, 38.38, 38.60, 33.62, 27.13, 23.08,
   140,10/09/05 02:20:14,11,290.98, 70.01,1019.2,Y,  0.00, 90.00,295.66, 38.86, 38.26, 34.78, 27.19, 23.62,
   141,10/09/05 02:21:14,11,291.50, 72.36,1019.7,Y,  0.00, 90.00,295.66, 38.74, 37.86, 34.64, 27.04, 23.44,
   142,10/09/05 02:22:14,11,291.18, 72.60,1019.2,Y,  0.00, 90.00,295.67, 38.36, 38.15, 34.15, 27.19, 23.52,
   143,10/09/05 02:23:14,11,290.99, 71.41,1019.5,Y,  0.00, 90.00,295.68, 40.00, 39.76, 35.83, 28.45, 23.96,
   144,10/09/05 02:24:14,11,291.05, 70.37,1019.6,Y,  0.00, 90.00,295.66, 38.58, 38.05, 34.17, 27.17, 22.52,
   145,10/09/05 02:25:14,11,291.02, 69.23,1019.8,Y,  0.00, 90.00,295.68, 37.52, 37.18, 32.63, 25.67, 21.60,
   146,10/09/05 02:26:14,11,291.28, 70.72,1019.1,Y,  0.00, 90.00,295.71, 35.75, 34.90, 31.76, 23.93, 18.59,
   147,10/09/05 02:27:14,11,291.04, 71.80,1019.7,Y,  0.00, 90.00,295.70, 36.44, 36.23, 31.73, 23.27, 17.92,
   148,10/09/05 02:28:14,11,291.03, 71.05,1019.4,Y,  0.00, 90.00,295.72, 38.61, 37.42, 33.82, 25.81, 20.50,
   149,10/09/05 02:29:14,11,290.97, 72.06,1019.2,Y,  0.00, 90.00,295.71, 39.78, 39.53, 35.75, 29.26, 26.06,
   150,10/09/05 02:30:14,11,291.05, 72.48,1019.4,Y,  0.00, 90.00,295.73, 44.29, 44.60, 41.15, 34.82, 33.93,
   151,10/09/05 02:31:14,11,290.90, 73.02,1019.7,Y,  0.00, 90.00,295.73, 43.51, 43.73, 40.14, 33.16, 31.18,
   152,10/09/05 02:32:14,11,290.98, 73.45,1019.5,Y,  0.00, 90.00,295.75, 42.56, 42.07, 38.71, 31.80, 28.92,
   153,10/09/05 02:33:15,11,290.92, 72.83,1019.6,Y,  0.00, 90.00,295.75, 41.27, 41.30, 36.79, 30.05, 26.34,
   154,10/09/05 02:34:14,11,290.80, 71.94,1019.4,Y,  0.00, 90.00,295.74, 39.45, 38.64, 35.04, 27.35, 23.66,
   155,10/09/05 02:35:14,11,291.02, 72.47,1019.4,Y,  0.00, 90.00,295.76, 41.17, 41.21, 36.46, 29.77, 26.44,
   156,10/09/05 02:36:14,11,291.01, 73.65,1019.9,Y,  0.00, 90.00,295.76, 40.65, 40.65, 36.36, 29.00, 26.49,
   157,10/09/05 02:37:14,11,290.96, 74.68,1019.3,Y,  0.00, 90.00,295.76, 41.65, 41.38, 37.13, 29.96, 26.64,
   158,10/09/05 02:38:14,11,291.16, 75.99,1019.5,Y,  0.00, 90.00,295.76, 37.57, 37.36, 33.49, 25.94, 21.81,
   159,10/09/05 02:39:14,11,290.91, 73.42,1019.6,Y,  0.00, 90.00,295.76, 37.56, 37.05, 33.72, 25.34, 22.10,
   160,10/09/05 02:40:14,11,291.18, 72.25,1019.4,Y,  0.00, 90.00,295.76, 36.88, 36.66, 32.27, 24.65, 20.81,
   161,10/09/05 02:41:14,11,291.22, 70.29,1019.7,Y,  0.00, 90.00,295.79, 37.67, 37.10, 32.68, 25.29, 20.99,
   162,10/09/05 02:42:14,11,291.32, 70.73,1019.4,Y,  0.00, 90.00,295.77, 37.08, 36.38, 32.62, 25.01, 20.76,
   163,10/09/05 02:43:14,11,291.30, 71.69,1019.4,Y,  0.00, 90.00,295.77, 36.70, 36.04, 31.36, 24.08, 18.48,
   164,10/09/05 02:44:14,11,291.10, 71.29,1019.2,Y,  0.00, 90.00,295.77, 36.60, 36.09, 31.80, 24.26, 18.70,
   165,10/09/05 02:45:14,11,291.15, 71.40,1019.8,Y,  0.00, 90.00,295.77, 34.86, 34.44, 30.12, 22.42, 17.30,
   166,10/09/05 02:46:14,11,291.05, 70.10,1019.3,Y,  0.00, 90.00,295.78, 36.55, 35.55, 32.36, 24.27, 19.60,
   167,10/09/05 02:47:14,11,291.02, 69.32,1019.8,Y,  0.00, 90.00,295.78, 38.24, 37.73, 33.74, 26.95, 21.97,
   168,10/09/05 02:48:14,11,291.08, 69.37,1019.8,Y,  0.00, 90.00,295.77, 38.03, 37.95, 33.39, 26.53, 21.22,
   169,10/09/05 02:49:14,11,291.10, 70.66,1019.6,Y,  0.00, 90.00,295.76, 37.37, 36.19, 32.88, 25.40, 20.31,
   170,10/09/05 02:50:14,11,290.98, 69.95,1019.7,Y,  0.00, 90.00,295.76, 37.62, 37.12, 33.21, 25.24, 21.58,
   171,10/09/05 02:51:14,11,290.86, 69.48,1019.3,Y,  0.00, 90.00,295.75, 35.39, 34.77, 30.89, 23.91, 20.13,
   172,10/09/05 02:52:14,11,291.04, 68.11,1019.6,Y,  0.00, 90.00,295.75, 36.21, 36.03, 31.98, 25.27, 21.12,
   173,10/09/05 02:53:14,11,291.03, 67.95,1019.3,Y,  0.00, 90.00,295.75, 37.10, 37.03, 32.30, 25.51, 22.00,
   174,10/09/05 02:54:14,11,291.16, 68.54,1019.8,Y,  0.00, 90.00,295.73, 36.35, 36.21, 32.50, 25.16, 21.04,
   175,10/09/05 02:55:14,11,291.04, 68.51,1019.8,Y,  0.00, 90.00,295.74, 35.55, 35.17, 31.30, 24.24, 20.47,
   176,10/09/05 02:56:14,11,291.05, 69.19,1019.9,Y,  0.00, 90.00,295.74, 36.16, 35.78, 31.86, 24.39, 20.13,
   177,10/09/05 02:57:14,11,291.09, 68.56,1019.8,Y,  0.00, 90.00,295.72, 35.18, 35.03, 30.53, 22.86, 18.66,
   178,10/09/05 02:58:14,11,291.04, 68.01,1020.0,Y,  0.00, 90.00,295.71, 35.36, 34.96, 30.97, 23.47, 19.71,
   179,10/09/05 02:59:14,11,291.05, 67.24,1020.0,Y,  0.00, 90.00,295.71, 36.07, 35.79, 32.18, 24.86, 20.57,
   180,10/09/05 03:00:14,11,291.05, 67.55,1019.8,Y,  0.00, 90.00,295.71, 35.50, 35.00, 31.16, 23.90, 19.55,
   181,10/09/05 03:01:14,11,291.16, 66.97,1019.7,Y,  0.00, 90.00,295.71, 35.09, 34.53, 31.02, 22.82, 18.89,
   182,10/09/05 03:02:14,11,291.07, 67.07,1019.9,Y,  0.00, 90.00,295.70, 34.99, 34.70, 30.77, 22.91, 19.20,
   183,10/09/05 03:03:14,11,291.10, 66.59,1019.3,Y,  0.00, 90.00,295.69, 34.16, 33.80, 29.93, 22.22, 16.84,
   184,10/09/05 03:04:14,11,291.07, 66.61,1020.1,Y,  0.00, 90.00,295.69, 34.61, 34.20, 30.04, 21.98, 17.84,
   185,10/09/05 03:05:14,11,291.09, 66.08,1019.6,Y,  0.00, 90.00,295.69, 34.47, 33.93, 30.63, 22.32, 17.95,
   186,10/09/05 03:06:14,11,291.03, 62.64,1019.9,Y,  0.00, 90.00,295.69, 33.83, 33.92, 29.66, 21.65, 16.32,
   187,10/09/05 03:07:14,11,291.02, 63.49,1019.8,Y,  0.00, 90.00,295.68, 34.91, 34.88, 30.61, 23.68, 18.19,
   188,10/09/05 03:08:14,11,291.04, 66.70,1019.8,Y,  0.00, 90.00,295.66, 36.19, 35.18, 31.13, 24.01, 19.48,
   189,10/09/05 03:09:14,11,291.05, 66.35,1020.1,Y,  0.00, 90.00,295.67, 36.08, 35.45, 31.76, 24.14, 20.10,
   190,10/09/05 03:10:14,11,291.05, 65.98,1019.3,Y,  0.00, 90.00,295.66, 36.53, 36.12, 32.42, 25.07, 21.18,
   191,10/09/05 03:11:14,11,291.06, 67.12,1019.7,Y,  0.00, 90.00,295.66, 36.22, 36.04, 32.20, 25.18, 20.96,
   192,10/09/05 03:12:14,11,291.07, 67.97,1020.0,Y,  0.00, 90.00,295.66, 36.56, 36.02, 32.18, 25.28, 21.43,
   193,10/09/05 03:13:14,11,291.09, 68.53,1019.9,Y,  0.00, 90.00,295.66, 37.26, 37.34, 33.41, 26.28, 21.68,
   194,10/09/05 03:14:14,11,291.09, 68.56,1019.5,Y,  0.00, 90.00,295.67, 38.03, 37.35, 33.25, 26.29, 22.23,
   195,10/09/05 03:15:14,11,291.02, 68.50,1019.7,Y,  0.00, 90.00,295.67, 38.05, 36.91, 32.84, 26.18, 22.50,
   196,10/09/05 03:16:14,11,291.04, 67.29,1019.4,Y,  0.00, 90.00,295.67, 37.51, 36.68, 33.02, 25.46, 22.21,
   197,10/09/05 03:17:14,11,290.98, 68.38,1020.0,Y,  0.00, 90.00,295.67, 37.03, 36.73, 33.12, 25.76, 21.85,
   198,10/09/05 03:18:14,11,291.09, 66.80,1019.2,Y,  0.00, 90.00,295.68, 36.57, 36.42, 32.63, 25.11, 21.33,
   199,10/09/05 03:19:14,11,291.18, 69.65,1019.7,Y,  0.00, 90.00,295.68, 36.71, 35.95, 32.88, 25.58, 21.51,
   200,10/09/05 03:20:14,11,291.10, 66.58,1019.7,Y,  0.00, 90.00,295.66, 36.24, 35.30, 31.82, 24.38, 20.49,
   201,10/09/05 03:21:14,11,291.10, 67.80,1019.7,Y,  0.00, 90.00,295.67, 35.56, 35.18, 30.87, 23.92, 19.69,
   202,10/09/05 03:22:14,11,291.05, 66.75,1019.5,Y,  0.00, 90.00,295.68, 36.20, 35.50, 31.53, 23.81, 20.84,
   203,10/09/05 03:23:14,11,291.01, 65.16,1020.0,Y,  0.00, 90.00,295.67, 35.01, 34.26, 30.41, 23.55, 19.03,
   204,10/09/05 03:24:14,11,291.08, 67.66,1019.7,Y,  0.00, 90.00,295.67, 34.95, 35.37, 30.66, 23.38, 19.03,
   205,10/09/05 03:25:14,11,291.00, 63.83,1019.9,Y,  0.00, 90.00,295.67, 34.18, 33.46, 29.98, 21.97, 18.03,
   206,10/09/05 03:26:14,11,291.06, 64.82,1020.2,Y,  0.00, 90.00,295.68, 34.42, 34.39, 29.94, 23.00, 18.32,
   207,10/09/05 03:27:14,11,291.10, 66.18,1019.9,Y,  0.00, 90.00,295.68, 34.28, 33.97, 29.65, 22.60, 18.42,
   208,10/09/05 03:28:14,11,291.08, 67.97,1019.9,Y,  0.00, 90.00,295.68, 34.29, 33.54, 30.05, 22.18, 16.96,
   209,10/09/05 03:29:14,11,291.06, 65.44,1020.2,Y,  0.00, 90.00,295.66, 34.46, 34.54, 30.24, 22.90, 17.99,
   210,10/09/05 03:30:14,11,291.02, 65.88,1020.3,Y,  0.00, 90.00,295.66, 34.37, 34.05, 29.81, 22.81, 18.05,
   211,10/09/05 03:31:14,11,291.03, 67.12,1020.4,Y,  0.00, 90.00,295.67, 34.78, 34.47, 30.10, 23.01, 18.70,
   212,10/09/05 03:32:14,11,291.03, 65.65,1020.2,Y,  0.00, 90.00,295.67, 34.42, 34.54, 30.47, 23.25, 19.29,
   213,10/09/05 03:33:14,11,291.04, 65.57,1019.7,Y,  0.00, 90.00,295.67, 34.71, 34.15, 30.42, 23.88, 20.04,
   214,10/09/05 03:34:14,11,291.08, 64.88,1020.0,Y,  0.00, 90.00,295.65, 35.28, 34.86, 30.95, 24.10, 20.28,
   215,10/09/05 03:35:14,11,291.10, 69.17,1020.3,Y,  0.00, 90.00,295.66, 35.21, 34.91, 30.71, 23.81, 19.20,
   216,10/09/05 03:36:14,11,291.07, 66.81,1020.0,Y,  0.00, 90.00,295.66, 36.20, 35.37, 31.80, 24.70, 20.91,
   217,10/09/05 03:37:14,11,290.94, 67.77,1020.4,Y,  0.00, 90.00,295.65, 35.68, 35.87, 31.94, 24.69, 20.03,
   218,10/09/05 03:38:14,11,291.05, 68.64,1020.2,Y,  0.00, 90.00,295.67, 35.66, 34.31, 30.30, 23.40, 18.59,
   219,10/09/05 03:39:14,11,291.09, 69.31,1020.0,Y,  0.00, 90.00,295.68, 35.20, 35.59, 31.51, 24.26, 20.50,